Location: Tucson
(32.2217°N, 110.9265°W)
Time: 07:40:27
(UTC-07:00)

Tiros 1 - Pass Details

Date: 25 October 2021
Orbit: 629 x 664 km, 48.4° (Epoch: 26 November)

Event Time Altitude Azimuth Distance (km) Brightness Sun altitude
Rises 15:43:01 0° 314° (NW) 2,952 10.7 21.9°
Reaches altitude 10° 15:45:27 10° 321° (NW) 2,035 9.9 21.5°
Maximum altitude 15:49:57 45° 34° (NE) 866 7.7 20.6°
Drops below altitude 10° 15:54:24 10° 108° (ESE) 2,008 9.4 19.8°
Sets 15:56:47 0° 114° (ESE) 2,910 10.2 19.4°
